EZY902 EGAE-EGBB

Flight info

Callsign EZY902
Flight time 0h 50m
Altitude 27000
Route BELZU L10 DUFFY DCT MAKUX
Aircraft A320/M-SDE2E3FGHIJ1RWXYZ/LB1

Departure

Time 2026-04-26 19:32
Airport City of Derry Airport (EGAE)

Arrival

Time 2026-04-26 20:23
Airport Birmingham Airport (EGBB)
Time Latitude Longitude Altitude Speed Heading
2026-04-26 19:27 55.04069 -7.15791 19 ft 0 kts 276°
2026-04-26 19:29 55.04083 -7.15847 20 ft 16 kts 314°
2026-04-26 19:29 55.04140 -7.15890 18 ft 25 kts 345°
2026-04-26 19:29 55.04208 -7.15919 17 ft 25 kts 336°
2026-04-26 19:29 55.04289 -7.16086 18 ft 20 kts 253°
2026-04-26 19:30 55.04246 -7.16322 19 ft 20 kts 252°
2026-04-26 19:30 55.04205 -7.16557 22 ft 20 kts 253°
2026-04-26 19:30 55.04159 -7.16810 23 ft 28 kts 253°
2026-04-26 19:30 55.04120 -7.17036 27 ft 28 kts 253°
2026-04-26 19:31 55.04048 -7.17414 30 ft 24 kts 250°
2026-04-26 19:31 55.03998 -7.17631 24 ft 10 kts 314°
2026-04-26 19:31 55.04024 -7.17577 25 ft 6 kts 73°
2026-04-26 19:31 55.04030 -7.17543 24 ft 15 kts 74°
2026-04-26 19:32 55.04150 -7.16871 23 ft 97 kts 72°
2026-04-26 19:32 55.04412 -7.15393 23 ft 155 kts 72°
2026-04-26 19:32 55.04751 -7.13510 503 ft 161 kts 72°
2026-04-26 19:32 55.05089 -7.11605 1152 ft 170 kts 71°
2026-04-26 19:33 55.05436 -7.09539 1561 ft 185 kts 71°
2026-04-26 19:33 55.05539 -7.07199 1913 ft 209 kts 103°
2026-04-26 19:33 55.04777 -7.04862 2180 ft 238 kts 129°
2026-04-26 19:33 55.03624 -7.02587 2605 ft 261 kts 132°
2026-04-26 19:34 55.02375 -7.00197 3386 ft 270 kts 133°
2026-04-26 19:34 55.01116 -6.97736 4299 ft 273 kts 133°
2026-04-26 19:34 54.99872 -6.95214 5256 ft 275 kts 132°
2026-04-26 19:34 54.98641 -6.92645 6165 ft 278 kts 131°
2026-04-26 19:35 54.97410 -6.90030 7037 ft 282 kts 131°
2026-04-26 19:35 54.96167 -6.87354 7845 ft 286 kts 130°
2026-04-26 19:35 54.94913 -6.84632 8656 ft 291 kts 130°
2026-04-26 19:35 54.93641 -6.81865 9460 ft 295 kts 130°
2026-04-26 19:36 54.92348 -6.79057 10256 ft 300 kts 130°
2026-04-26 19:36 54.91452 -6.77119 10577 ft 311 kts 130°
2026-04-26 19:36 54.89571 -6.73068 10961 ft 338 kts 130°
2026-04-26 19:36 54.88076 -6.69852 11575 ft 345 kts 130°
2026-04-26 19:37 54.86561 -6.66594 12281 ft 349 kts 130°
2026-04-26 19:37 54.85027 -6.63297 13004 ft 353 kts 130°
2026-04-26 19:37 54.83471 -6.59953 13721 ft 357 kts 130°
2026-04-26 19:37 54.81902 -6.56584 14394 ft 361 kts 130°
2026-04-26 19:38 54.80317 -6.53187 15029 ft 364 kts 130°
2026-04-26 19:38 54.78713 -6.49752 15640 ft 368 kts 130°
2026-04-26 19:38 54.77092 -6.46288 16263 ft 372 kts 130°
2026-04-26 19:38 54.75457 -6.42804 16856 ft 376 kts 130°
2026-04-26 19:39 54.73794 -6.39269 17461 ft 380 kts 130°
2026-04-26 19:39 54.72117 -6.35714 18058 ft 384 kts 130°
2026-04-26 19:39 54.70421 -6.32127 18629 ft 388 kts 130°
2026-04-26 19:39 54.68702 -6.28495 19140 ft 392 kts 130°
2026-04-26 19:40 54.66969 -6.24833 19674 ft 395 kts 130°
2026-04-26 19:40 54.65318 -6.21014 20216 ft 398 kts 125°
2026-04-26 19:40 54.63761 -6.17048 20763 ft 401 kts 125°
2026-04-26 19:40 54.62188 -6.13050 21309 ft 404 kts 126°
2026-04-26 19:41 54.60602 -6.09031 21853 ft 407 kts 126°
2026-04-26 19:41 54.59005 -6.05002 22395 ft 409 kts 125°
2026-04-26 19:41 54.57392 -6.00939 22970 ft 411 kts 125°
2026-04-26 19:41 54.56322 -5.98243 23331 ft 412 kts 125°
2026-04-26 19:42 54.54146 -5.92765 24000 ft 416 kts 126°
2026-04-26 19:42 54.52507 -5.88648 24429 ft 418 kts 126°
2026-04-26 19:42 54.50735 -5.84663 24853 ft 419 kts 134°
2026-04-26 19:42 54.48758 -5.80963 25266 ft 421 kts 135°
2026-04-26 19:43 54.46764 -5.77263 25681 ft 423 kts 135°
2026-04-26 19:43 54.44758 -5.73553 26086 ft 425 kts 135°
2026-04-26 19:43 54.42745 -5.69832 26489 ft 426 kts 136°
2026-04-26 19:43 54.40722 -5.66093 26874 ft 428 kts 136°
2026-04-26 19:44 54.38692 -5.62340 27204 ft 430 kts 136°
2026-04-26 19:44 54.36672 -5.58604 27257 ft 421 kts 136°
2026-04-26 19:44 54.34715 -5.54982 27288 ft 408 kts 136°
2026-04-26 19:44 54.32797 -5.51448 27288 ft 404 kts 136°
2026-04-26 19:45 54.30883 -5.47934 27291 ft 402 kts 136°
2026-04-26 19:45 54.29002 -5.44490 27291 ft 402 kts 136°
2026-04-26 19:45 54.27092 -5.41000 27291 ft 402 kts 136°
2026-04-26 19:45 54.25176 -5.37507 27291 ft 402 kts 136°
2026-04-26 19:46 54.23269 -5.34024 27288 ft 402 kts 136°
2026-04-26 19:46 54.21362 -5.30540 27290 ft 402 kts 136°
2026-04-26 19:46 54.19449 -5.27052 27289 ft 402 kts 136°
2026-04-26 19:46 54.17540 -5.23583 27288 ft 401 kts 136°
2026-04-26 19:47 54.15627 -5.20112 27289 ft 401 kts 136°
2026-04-26 19:47 54.14335 -5.17769 27289 ft 401 kts 136°
2026-04-26 19:47 54.11802 -5.13184 27271 ft 401 kts 136°
2026-04-26 19:47 54.09859 -5.09675 27273 ft 401 kts 136°
2026-04-26 19:48 54.07946 -5.06226 27277 ft 401 kts 136°
2026-04-26 19:48 54.06032 -5.02777 27278 ft 401 kts 136°
2026-04-26 19:48 54.04118 -4.99330 27281 ft 401 kts 136°
2026-04-26 19:48 54.02199 -4.95881 27284 ft 399 kts 136°
2026-04-26 19:49 54.00325 -4.92513 27292 ft 389 kts 136°
2026-04-26 19:49 53.98470 -4.89185 27290 ft 386 kts 136°
2026-04-26 19:49 53.96739 -4.85704 27260 ft 388 kts 129°
2026-04-26 19:49 53.95146 -4.82029 27098 ft 386 kts 129°
2026-04-26 19:50 53.93578 -4.78409 26980 ft 385 kts 129°
2026-04-26 19:50 53.91985 -4.74740 26851 ft 385 kts 128°
2026-04-26 19:50 53.90382 -4.71043 26724 ft 384 kts 128°
2026-04-26 19:50 53.88819 -4.67448 26606 ft 382 kts 128°
2026-04-26 19:51 53.87221 -4.63789 26480 ft 380 kts 128°
2026-04-26 19:51 53.85671 -4.60247 26353 ft 379 kts 128°
2026-04-26 19:51 53.84099 -4.56662 26236 ft 379 kts 128°
2026-04-26 19:51 53.82529 -4.53092 26102 ft 378 kts 128°
2026-04-26 19:52 53.80959 -4.49528 25852 ft 377 kts 128°
2026-04-26 19:52 53.79398 -4.45971 25574 ft 375 kts 128°
2026-04-26 19:52 53.77846 -4.42435 25306 ft 374 kts 128°
2026-04-26 19:52 53.76297 -4.38913 25044 ft 373 kts 128°
2026-04-26 19:53 53.74751 -4.35406 24780 ft 371 kts 128°
2026-04-26 19:53 53.73211 -4.31919 24525 ft 370 kts 128°
2026-04-26 19:53 53.71680 -4.28453 24140 ft 367 kts 128°
2026-04-26 19:53 53.70155 -4.25006 23700 ft 365 kts 127°
2026-04-26 19:54 53.68637 -4.21589 23332 ft 362 kts 127°
2026-04-26 19:54 53.67125 -4.18193 23296 ft 363 kts 127°
2026-04-26 19:54 53.65610 -4.14790 23294 ft 362 kts 129°
2026-04-26 19:54 53.64096 -4.11390 23298 ft 362 kts 129°
2026-04-26 19:55 53.62584 -4.07994 23296 ft 362 kts 129°
2026-04-26 19:55 53.61073 -4.04607 23296 ft 362 kts 129°
2026-04-26 19:55 53.59560 -4.01223 23296 ft 362 kts 129°
2026-04-26 19:55 53.58041 -3.97839 23296 ft 362 kts 129°
2026-04-26 19:56 53.56522 -3.94460 23299 ft 362 kts 130°
2026-04-26 19:56 53.55004 -3.91083 23298 ft 362 kts 130°
2026-04-26 19:56 53.53485 -3.87709 23299 ft 362 kts 130°
2026-04-26 19:56 53.51967 -3.84338 23299 ft 362 kts 130°
2026-04-26 19:57 53.50447 -3.80962 23299 ft 362 kts 130°
2026-04-26 19:57 53.48929 -3.77591 23298 ft 362 kts 130°
2026-04-26 19:57 53.47408 -3.74225 23298 ft 362 kts 130°
2026-04-26 19:57 53.45885 -3.70860 23298 ft 362 kts 130°
2026-04-26 19:58 53.44361 -3.67500 23298 ft 362 kts 130°
2026-04-26 19:58 53.42834 -3.64136 23298 ft 362 kts 130°
2026-04-26 19:58 53.41309 -3.60786 23298 ft 362 kts 130°
2026-04-26 19:58 53.39724 -3.57519 23298 ft 362 kts 133°
2026-04-26 19:59 53.38074 -3.54329 23299 ft 362 kts 134°
2026-04-26 19:59 53.36393 -3.51191 23299 ft 362 kts 135°
2026-04-26 19:59 53.35273 -3.49117 23299 ft 362 kts 135°
2026-04-26 20:01 53.34911 -3.48445 23299 ft 362 kts 135°
2026-04-26 20:01 53.33143 -3.45285 23299 ft 362 kts 135°
2026-04-26 20:01 53.31456 -3.42157 23299 ft 362 kts 134°
2026-04-26 20:01 53.29795 -3.38991 23301 ft 362 kts 134°
2026-04-26 20:02 53.28145 -3.35815 23197 ft 360 kts 134°
2026-04-26 20:02 53.26510 -3.32668 22736 ft 358 kts 133°
2026-04-26 20:02 53.24888 -3.29562 22443 ft 345 kts 133°
2026-04-26 20:02 53.23861 -3.27604 22347 ft 331 kts 134°
2026-04-26 20:03 53.21886 -3.23860 21922 ft 314 kts 134°
2026-04-26 20:03 53.20453 -3.21163 21360 ft 309 kts 133°
2026-04-26 20:03 53.19108 -3.18374 20757 ft 309 kts 125°
2026-04-26 20:03 53.17963 -3.15367 20371 ft 306 kts 123°
2026-04-26 20:04 53.16825 -3.12355 20289 ft 307 kts 123°
2026-04-26 20:04 53.15682 -3.09339 20300 ft 308 kts 123°
2026-04-26 20:04 53.14535 -3.06320 20297 ft 305 kts 123°
2026-04-26 20:04 53.13418 -3.03377 20299 ft 299 kts 124°
2026-04-26 20:05 53.12307 -3.00455 20298 ft 299 kts 125°
2026-04-26 20:05 53.11195 -2.97540 20298 ft 298 kts 125°
2026-04-26 20:05 53.10079 -2.94622 20301 ft 298 kts 125°
2026-04-26 20:05 53.08964 -2.91709 20301 ft 298 kts 125°
2026-04-26 20:06 53.07852 -2.88796 20301 ft 298 kts 125°
2026-04-26 20:06 53.06684 -2.85901 19892 ft 305 kts 128°
2026-04-26 20:06 53.05451 -2.83079 19697 ft 297 kts 129°
2026-04-26 20:06 53.04219 -2.80347 19426 ft 294 kts 129°
2026-04-26 20:07 53.02982 -2.77630 18917 ft 300 kts 129°
2026-04-26 20:07 53.01686 -2.74787 18082 ft 318 kts 129°
2026-04-26 20:07 53.00324 -2.71783 17261 ft 332 kts 128°
2026-04-26 20:07 52.98929 -2.68687 16687 ft 336 kts 128°
2026-04-26 20:08 52.97526 -2.65557 16106 ft 341 kts 128°
2026-04-26 20:08 52.96104 -2.62380 15546 ft 344 kts 128°
2026-04-26 20:08 52.94701 -2.59247 15209 ft 340 kts 128°
2026-04-26 20:08 52.93300 -2.56120 14714 ft 335 kts 128°
2026-04-26 20:09 52.91920 -2.53041 14001 ft 331 kts 127°
2026-04-26 20:09 52.90550 -2.49992 13261 ft 327 kts 128°
2026-04-26 20:09 52.89210 -2.47017 12712 ft 317 kts 128°
2026-04-26 20:09 52.87908 -2.44133 12189 ft 308 kts 128°
2026-04-26 20:10 52.86638 -2.41318 11685 ft 302 kts 128°
2026-04-26 20:10 52.85387 -2.38552 11183 ft 299 kts 128°
2026-04-26 20:10 52.84147 -2.35816 10688 ft 295 kts 128°
2026-04-26 20:10 52.82928 -2.33121 10199 ft 291 kts 128°
2026-04-26 20:11 52.81705 -2.30483 9676 ft 288 kts 133°
2026-04-26 20:11 52.80349 -2.28062 9194 ft 286 kts 134°
2026-04-26 20:11 52.79002 -2.25665 8720 ft 284 kts 134°
2026-04-26 20:12 52.76344 -2.20919 7777 ft 280 kts 134°
2026-04-26 20:12 52.75029 -2.18575 7316 ft 277 kts 134°
2026-04-26 20:12 52.73721 -2.16242 6842 ft 276 kts 134°
2026-04-26 20:12 52.72418 -2.13927 6380 ft 274 kts 133°
2026-04-26 20:13 52.71126 -2.11630 5911 ft 272 kts 133°
2026-04-26 20:13 52.69841 -2.09349 5452 ft 270 kts 133°
2026-04-26 20:13 52.68564 -2.07082 4850 ft 269 kts 133°
2026-04-26 20:13 52.67303 -2.04846 4278 ft 265 kts 133°
2026-04-26 20:14 52.66061 -2.02647 3917 ft 254 kts 133°
2026-04-26 20:14 52.65013 -2.00444 3707 ft 235 kts 126°
2026-04-26 20:14 52.64110 -1.98326 3677 ft 225 kts 125°
2026-04-26 20:14 52.63171 -1.96098 3830 ft 249 kts 122°
2026-04-26 20:15 52.62582 -1.93353 4220 ft 264 kts 93°
2026-04-26 20:15 52.62918 -1.90381 5061 ft 270 kts 65°
2026-04-26 20:15 52.64026 -1.87915 5373 ft 269 kts 38°
2026-04-26 20:15 52.65695 -1.86597 5633 ft 269 kts 10°
2026-04-26 20:16 52.67556 -1.86524 5880 ft 269 kts 349°
2026-04-26 20:16 52.69225 -1.87816 5981 ft 268 kts 315°
2026-04-26 20:16 52.70324 -1.90271 6005 ft 268 kts 303°
2026-04-26 20:16 52.71443 -1.92731 6005 ft 268 kts 308°
2026-04-26 20:17 52.72582 -1.95161 6005 ft 268 kts 300°
2026-04-26 20:17 52.73151 -1.98046 6000 ft 267 kts 272°
2026-04-26 20:17 52.72777 -2.01011 6009 ft 267 kts 242°
2026-04-26 20:17 52.72048 -2.02680 6012 ft 268 kts 224°
2026-04-26 20:18 52.69893 -2.04562 6001 ft 268 kts 191°
2026-04-26 20:18 52.68049 -2.04541 6000 ft 269 kts 167°
2026-04-26 20:18 52.66331 -2.03265 5476 ft 277 kts 141°
2026-04-26 20:18 52.65004 -2.00999 5039 ft 275 kts 131°
2026-04-26 20:19 52.63733 -1.98683 4653 ft 271 kts 132°
2026-04-26 20:19 52.62469 -1.96405 4294 ft 267 kts 133°
2026-04-26 20:19 52.61204 -1.94141 3936 ft 264 kts 133°
2026-04-26 20:19 52.59966 -1.91932 3580 ft 258 kts 133°
2026-04-26 20:20 52.58761 -1.89869 3267 ft 242 kts 140°
2026-04-26 20:20 52.57461 -1.88254 2969 ft 228 kts 146°
2026-04-26 20:20 52.56176 -1.86832 2683 ft 218 kts 147°
2026-04-26 20:20 52.54946 -1.85468 2396 ft 208 kts 147°
2026-04-26 20:21 52.53771 -1.84157 2130 ft 200 kts 147°
2026-04-26 20:21 52.52668 -1.82925 1876 ft 183 kts 147°
2026-04-26 20:21 52.51669 -1.81808 1646 ft 164 kts 147°
2026-04-26 20:21 52.50764 -1.80798 1406 ft 150 kts 147°
2026-04-26 20:22 52.49927 -1.79865 1207 ft 142 kts 146°
2026-04-26 20:22 52.49116 -1.78960 1015 ft 140 kts 146°
2026-04-26 20:22 52.48317 -1.78069 825 ft 138 kts 146°
2026-04-26 20:22 52.47525 -1.77184 638 ft 137 kts 146°
2026-04-26 20:23 52.46737 -1.76303 428 ft 137 kts 146°
2026-04-26 20:23 52.45963 -1.75446 322 ft 125 kts 147°
2026-04-26 20:23 52.45464 -1.74890 324 ft 28 kts 146°
2026-04-26 20:23 52.45407 -1.74732 326 ft 15 kts 65°
2026-04-26 20:24 52.45458 -1.74600 324 ft 13 kts 62°
2026-04-26 20:24 52.45447 -1.74484 325 ft 10 kts 118°
2026-04-26 20:24 52.45422 -1.74398 324 ft 7 kts 113°
2026-04-26 20:24 52.45403 -1.74334 327 ft 5 kts 117°
2026-04-26 20:25 52.45382 -1.74269 325 ft 11 kts 117°
2026-04-26 20:25 52.45353 -1.74175 327 ft 18 kts 117°
2026-04-26 20:25 52.45357 -1.73865 326 ft 24 kts 55°
2026-04-26 20:25 52.45412 -1.73675 327 ft 13 kts 116°
2026-04-26 20:26 52.45359 -1.73610 329 ft 0 kts 146°